DateTimeUTC,F1_A11,F1_S11,BsB_S11,BsG_S11,BsR_S11,BbsB_S11,BbsG_S11,BbsR_S11,BaB_A11,BaG_A11,BaR_A11,Tu_S11,T_S11,Uu_S11,U_S11,P_S11,T1_A11
2021-05-19T10:00:00Z,00000200,20000000,,,,,,,-000.23,-000.59,-000.05,17.5,24.1,02.3,01.5,0678.5,30.9
2021-05-19T10:01:00Z,00000200,20000000,,,,,,,-000.16,-000.08,-000.36,17.4,24.1,02.3,01.5,0678.5,30.9
2021-05-19T10:02:00Z,00000200,20000000,,,,,,,0000.29,0000.18,0000.01,17.4,24.1,02.1,01.4,0678.5,30.9
2021-05-19T10:03:00Z,00000200,60000000,,,,,,,0000.27,0000.49,0000.23,17.4,24.2,02.0,01.3,0678.5,30.9
2021-05-19T10:04:00Z,00000200,40000000,0000.86,0000.94,0000.60,0000.59,0000.21,0000.07,0000.17,0000.15,0000.50,17.6,24.0,02.1,01.4,0679.4,30.9
2021-05-19T10:05:00Z,00000200,00000000,0000.64,0000.64,0000.51,0000.17,0000.16,0000.00,0000.61,0000.51,0000.01,17.6,23.9,02.1,01.4,0679.5,30.9
2021-05-19T10:06:00Z,00000200,00000000,0000.96,0000.69,0000.87,0000.54,-000.03,0000.38,0000.06,0000.10,0000.32,17.6,23.9,02.2,01.5,0679.5,30.9
2021-05-19T10:07:00Z,00000200,00000000,0000.70,0000.64,0000.53,0001.11,0000.22,0000.35,0000.53,0000.55,-000.18,17.6,23.9,02.2,01.5,0679.5,30.9
2021-05-19T10:08:00Z,00000200,00000000,0000.63,0000.65,0000.57,0000.51,0000.06,0000.25,0000.30,0000.31,0000.34,17.6,24.0,02.2,01.5,0679.5,30.9
2021-05-19T10:09:00Z,00000200,00000000,0000.84,0000.69,0000.81,-000.21,-000.00,0000.04,0000.05,0000.26,0000.45,17.7,23.9,02.0,01.4,0679.5,30.9
2021-05-19T10:10:00Z,00000200,00000000,0000.84,0000.59,0000.45,0000.11,0000.45,-000.03,0000.47,0000.32,0000.07,17.6,23.9,02.1,01.4,0679.5,30.9
2021-05-19T10:11:00Z,00000200,01000000,0001.26,0000.65,0000.53,0000.63,0000.22,0000.38,0000.22,0000.08,0000.32,17.7,24.0,02.1,01.4,0679.5,30.9
2021-05-19T10:12:00Z,00000200,00000000,0001.10,0000.54,0000.32,0000.03,0000.18,-000.19,0000.56,0000.42,0000.20,17.7,23.9,02.2,01.5,0679.5,30.9
2021-05-19T10:13:00Z,00000200,00000000,0001.11,0000.86,0000.76,0000.31,0000.46,0000.36,0000.38,0000.33,0000.03,17.7,24.0,02.1,01.4,0679.5,30.9
2021-05-19T10:14:00Z,00000200,00000000,0000.87,0000.73,0000.82,0000.13,0000.06,0000.05,0000.31,0000.26,0000.13,17.7,24.0,02.1,01.4,0679.5,30.9
2021-05-19T10:15:00Z,00000200,00000000,0001.04,0000.87,0000.80,0000.34,0000.38,0000.23,0000.28,0000.30,0000.66,17.7,23.9,02.1,01.4,0679.5,30.9
2021-05-19T10:16:00Z,00000200,00000000,0000.71,0000.89,0000.48,0000.66,0000.22,-000.09,0000.17,0000.02,-000.10,17.7,23.9,02.1,01.4,0679.5,30.9
2021-05-19T10:17:00Z,00000200,00000000,0001.35,0000.66,0000.55,-000.00,0000.41,0000.32,0000.51,0000.38,0000.29,17.7,23.9,02.1,01.4,0679.6,30.9
2021-05-19T10:18:00Z,00000200,00000000,0000.92,0000.69,0000.74,0000.16,0000.22,0000.22,0000.38,0000.50,0000.14,17.7,24.0,02.1,01.4,0679.6,30.9
2021-05-19T10:19:00Z,00000200,01000000,0001.34,0001.04,0000.52,0000.16,0000.17,-000.08,0000.20,-000.05,0000.31,17.7,24.0,02.0,01.4,0679.6,30.9
2021-05-19T10:20:00Z,00000200,00000000,0001.23,0000.78,0000.64,0000.55,0000.22,-000.00,0000.49,0000.47,0000.29,17.7,24.0,02.0,01.4,0679.6,30.9
2021-05-19T10:21:00Z,00000200,00000000,0001.20,0000.77,0000.62,0000.55,0000.22,0000.15,0000.25,0000.22,0000.36,17.7,24.0,02.1,01.4,0679.6,30.9
2021-05-19T10:22:00Z,00000200,00000000,0001.67,0000.76,0000.62,0000.42,0000.28,0000.30,0000.01,0000.48,0000.14,17.7,24.0,02.2,01.5,0679.6,30.9
2021-05-19T10:23:00Z,00000200,00000000,0001.57,0000.67,0000.45,0000.57,0000.19,0000.26,0000.67,0000.23,0000.14,17.7,24.0,02.0,01.3,0679.6,30.9
2021-05-19T10:24:00Z,00000200,00000000,0001.07,0000.69,0000.76,0000.59,0000.08,0000.13,-000.09,0000.14,0000.02,17.7,24.0,02.1,01.4,0679.6,30.9
2021-05-19T10:25:00Z,00000200,00000000,0000.84,0000.91,0000.59,0000.18,0000.24,-000.02,0000.79,0000.59,0000.40,17.7,24.0,02.0,01.4,0679.6,30.9
2021-05-19T10:26:00Z,00000200,00000000,0001.53,0000.94,0000.82,0000.11,0000.16,0000.08,0000.58,0000.26,0000.46,17.7,24.0,02.0,01.4,0679.6,30.9
2021-05-19T10:27:00Z,00000200,00000000,0000.83,0000.96,0000.38,0000.63,0000.30,-000.02,0000.06,0000.39,0000.23,17.7,24.0,02.1,01.4,0679.5,30.9
2021-05-19T10:28:00Z,00000200,00000000,0000.57,0000.79,0000.76,0000.47,0000.29,0000.16,0000.20,0000.10,-000.03,17.7,24.0,02.1,01.4,0679.5,30.9
2021-05-19T10:29:00Z,00000200,00000000,0001.30,0000.71,0000.69,0000.48,0000.03,0000.00,0000.08,0000.33,0000.13,17.7,24.0,02.1,01.4,0679.5,30.9
2021-05-19T10:30:00Z,00000200,00000000,0000.79,0000.67,0000.94,0000.79,0000.03,0000.05,0000.24,0000.17,0000.25,17.7,24.0,02.1,01.4,0679.5,30.9
2021-05-19T10:31:00Z,00000200,00000000,0001.07,0000.62,0000.55,0000.33,0000.09,0000.38,0000.65,0000.35,0000.36,17.7,24.0,02.0,01.3,0679.5,30.9
2021-05-19T10:32:00Z,00000200,00000000,0001.18,0000.90,0000.89,0000.21,0000.29,0000.05,0000.25,0000.22,0000.25,17.7,24.0,02.1,01.4,0679.5,30.9
2021-05-19T10:33:00Z,00000200,00000000,0000.37,0000.61,0000.95,0000.70,0000.16,0000.30,0000.40,0000.33,0000.39,17.7,24.0,02.1,01.4,0679.5,30.9
2021-05-19T10:34:00Z,00000200,00000000,0001.18,0000.84,0000.81,0000.57,0000.27,0000.09,0000.40,0000.28,-000.03,17.7,24.0,02.2,01.5,0679.5,30.9
2021-05-19T10:35:00Z,00000200,00000000,0000.90,0000.83,0000.94,0000.49,-000.15,0000.26,0000.15,0000.37,0000.17,17.7,24.0,02.0,01.4,0679.5,30.9
2021-05-19T10:36:00Z,00000200,01000000,0001.11,0000.73,0000.65,0000.37,-000.11,0000.04,0000.41,0000.33,0000.17,17.7,24.0,02.1,01.5,0679.5,30.9
2021-05-19T10:37:00Z,00000200,00000000,0001.06,0000.80,0000.61,0000.52,0000.07,-000.05,0000.34,-000.03,0000.33,17.7,24.0,02.1,01.4,0679.6,30.9
2021-05-19T10:38:00Z,00000200,00000000,0001.08,0000.72,0000.79,0000.37,0000.28,-000.09,0000.49,0000.45,0000.41,17.7,24.0,02.1,01.4,0679.6,30.9
2021-05-19T10:39:00Z,00000200,00000000,0000.91,0001.19,0000.83,0000.12,0000.27,0000.32,0000.37,0000.42,0000.25,17.7,24.0,02.2,01.5,0679.5,30.9
2021-05-19T10:40:00Z,00000200,00000000,0001.40,0001.05,0000.87,0000.17,0000.30,0000.32,0000.38,0000.70,0000.02,17.7,24.0,02.0,01.4,0679.5,30.9
2021-05-19T10:41:00Z,00000200,00000000,0000.54,0000.90,0000.55,0000.55,0000.14,0000.06,0000.31,0000.02,0000.70,17.7,24.0,02.1,01.5,0679.5,30.9
2021-05-19T10:42:00Z,00000200,00000000,0000.67,0000.88,0000.72,0000.89,0000.09,0000.04,0000.40,0000.15,0000.08,17.7,24.0,02.1,01.4,0679.5,30.9
2021-05-19T10:43:00Z,00000200,01000000,0000.34,0000.85,0000.64,0000.12,0000.10,0000.04,0000.07,0000.55,-000.24,17.7,24.0,02.0,01.4,0679.5,30.9
2021-05-19T10:44:00Z,00000200,01000000,0001.33,0000.79,0000.70,0000.28,0000.29,0000.06,0000.44,0000.29,0000.33,17.7,24.0,02.0,01.4,0679.5,30.9
2021-05-19T10:45:00Z,00000200,00000000,0001.23,0000.72,0000.72,0000.50,0000.08,0000.07,0000.22,0000.44,0000.52,17.7,24.0,02.1,01.4,0679.6,30.9
2021-05-19T10:46:00Z,00000200,00000000,0000.50,0000.57,0000.71,-000.05,0000.26,0000.25,0000.33,-000.18,-000.30,17.7,24.0,02.0,01.4,0679.6,30.9
2021-05-19T10:47:00Z,00000200,01000000,0001.03,0000.90,0000.72,0000.70,0000.04,0000.10,-000.77,-000.65,-000.78,17.7,24.0,01.9,01.3,0679.6,30.9
2021-05-19T10:48:00Z,00000200,01000000,0001.19,0000.52,0000.57,0000.10,0000.60,0000.13,0000.49,-000.24,-000.02,17.7,24.0,01.1,00.7,0679.6,30.9
2021-05-19T10:49:00Z,00000200,01000000,0000.71,0000.59,0000.41,0000.25,0000.15,0000.02,0000.43,0000.72,0000.32,17.7,24.0,01.0,00.7,0679.6,30.9
2021-05-19T10:50:00Z,00000200,01000000,0000.63,0000.66,0000.61,0000.11,0000.02,0000.05,0000.28,0000.37,0000.01,17.7,24.0,01.0,00.7,0679.6,30.9
2021-05-19T10:51:00Z,00000200,01000000,0001.09,0000.55,0000.83,0000.06,0000.31,-000.14,0001.21,0001.10,0000.97,17.8,24.0,01.0,00.7,0679.6,30.9
2021-05-19T10:52:00Z,00000200,01000000,0001.10,0000.77,0000.82,0000.25,0000.34,0000.17,0001.00,0000.82,0001.17,17.8,24.0,01.5,01.0,0679.6,30.9
2021-05-19T10:53:00Z,00000200,01000000,0001.00,0000.89,0000.74,-000.04,0000.24,0000.23,0000.77,0000.93,0000.86,17.8,24.0,01.8,01.2,0679.6,30.9
2021-05-19T10:54:00Z,00000200,01000000,0001.07,0000.45,0000.80,0000.70,0000.24,0000.15,0000.40,0000.48,0000.45,17.8,24.1,01.9,01.3,0679.6,30.9
2021-05-19T10:55:00Z,00000200,01000000,0000.72,0000.88,0000.73,0000.17,0000.34,0000.05,0000.60,0000.31,0000.27,17.8,24.1,02.0,01.4,0679.5,30.9
2021-05-19T10:56:00Z,00000200,00000000,0001.07,0000.85,0000.77,0000.20,0000.17,0000.08,0000.25,0000.51,0000.33,17.8,24.1,02.0,01.3,0679.5,30.9
2021-05-19T10:57:00Z,00000200,40000000,,,,,,,0000.33,0000.20,0000.13,17.9,24.2,01.6,01.1,0679.6,30.9
2021-05-19T10:58:00Z,00000200,60000000,,,,,,,0000.03,0000.20,0000.05,17.6,24.2,02.0,01.3,0678.6,30.9
2021-05-19T10:59:00Z,00000200,20000000,,,,,,,-000.26,-000.40,-000.11,17.6,24.3,02.0,01.3,0678.5,30.9
